Back to catalog

STARLINK-11413

AliveCommunicationsVLEO
NORAD 62593·PAYLOAD·🇺🇸 United States

Launched Jan 13, 2025 from Cape Canaveral Space Force Station

Loading…

Next Passes (next 24 hours)

TLE

FreshSource: CelesTrak SupGP

Epoch: Sep 14, 2026, 22:38 UTC

1 62593C 25008G   26257.94354167  .00101890  00000+0  79157-3 0  2578
2 62593  43.0009  65.6845 0001653 274.8013 164.3030 15.70781722    15

Track STARLINK-11413 in real time with AllMySat

Download on the App Store